TOKI (42820 NORAD) Tracking and Keplerian Element Data

This shows tracking and keplerian element data for the satellite.

Feedback or suggestion? Click here.




ElementValue
Catalog42820
NameTOKI
Epoch Orbit9785
Epoch Day82.053004
Epoch Year2019
RAAN3.1759
Inclination51.6284
Eccentricity0.0004657
Argument of Perigee158.4405
Mean Anonmoly201.6799
Mean Motion15.92963215
Decay Rate0.0012992
L11 42820U 98067MU 19082.05300400 .00129920 17557-4 37190-3 0 9993
L22 42820 51.6284 3.1759 0004657 158.4405 201.6799 15.92963215 97854

Live tracking and technical data element details for TOKI (NORAD 42820). TOKI can be tracked NOW for your location showing map with azimuth and elevation plus other details from your city location.

Track the satellite on the map from your city or location and see movement details for azimuth, elevation, latitude, longitude, range, height, and movement on the map or in text.







IsCatalogInMostPopularTable: catalog: 42820, numindb: 216
Update: records affected: 1



GetName: 42820 TOKI

Hit Count: updated at: Sun, 24 Mar 2019 08:45:42 GMT